| time (UTC) | temp F | wind direction | speed MPH | gust MPH | rain 1hr in | rain 24hr in | rain mn in | humidity % | barometer mb |
| 20260510170804 | 44 | 8 | 3.0 | 6.0 | 0.00 | 0.00 | 0.00 | 74 | 1002.3 |
| 20260510170304 | 43 | 278 | 3.0 | 8.0 | 0.00 | 0.00 | 0.00 | 75 | 1002.3 |
| 20260510160804 | 42 | 275 | 5.0 | 8.0 | 0.00 | 0.00 | 0.00 | 77 | 1002.5 |
| 20260510160305 | 42 | 347 | 3.0 | 10.0 | 0.00 | 0.00 | 0.00 | 77 | 1002.5 |
| 20260510150805 | 41 | 113 | 3.0 | 7.0 | 0.00 | 0.00 | 0.00 | 78 | 1002.0 |
| 20260510140805 | 40 | 26 | 3.0 | 8.0 | 0.00 | 0.00 | 0.00 | 79 | 1002.0 |
| 20260510130804 | 39 | 277 | 3.0 | 5.0 | 0.00 | 0.00 | 0.00 | 81 | 1002.0 |
| 20260510130304 | 39 | 284 | 3.0 | 6.0 | 0.00 | 0.00 | 0.00 | 81 | 1002.0 |
| 20260510120804 | 37 | 287 | 2.0 | 5.0 | 0.00 | 0.00 | 0.00 | 84 | 1002.4 |
| 20260510120304 | 37 | 283 | 2.0 | 5.0 | 0.00 | 0.00 | 0.00 | 85 | 1002.3 |
| 20260510110805 | 37 | 250 | 2.0 | 3.0 | 0.00 | 0.00 | 0.00 | 84 | 1002.4 |
| 20260510110305 | 37 | 247 | 2.0 | 6.0 | 0.00 | 0.00 | 0.00 | 84 | 1002.4 |
| 20260510100804 | 38 | 269 | 4.0 | 8.0 | 0.00 | 0.00 | 0.00 | 80 | 1002.4 |
| 20260510100304 | 38 | 281 | 3.0 | 8.0 | 0.00 | 0.00 | 0.00 | 80 | 1002.3 |
| 20260510090804 | 37 | 266 | 2.0 | 5.0 | 0.00 | 0.00 | 0.00 | 82 | 1002.1 |
| 20260510090305 | 37 | 173 | 3.0 | 7.0 | 0.00 | 0.00 | 0.00 | 81 | 1002.0 |
| 20260510080804 | 40 | 295 | 3.0 | 3.0 | 0.00 | 0.00 | 0.00 | 76 | 1002.0 |
| 20260510080305 | 40 | 274 | 3.0 | 7.0 | 0.00 | 0.00 | 0.00 | 75 | 1002.0 |
| 20260510070304 | 41 | 299 | 3.0 | 8.0 | 0.00 | 0.00 | 0.00 | 74 | 1001.9 |
| 20260510060805 | 42 | 278 | 3.0 | 7.0 | 0.00 | 0.00 | 0.00 | 72 | 1001.9 |
| 20260510060305 | 42 | 129 | 3.0 | 7.0 | 0.00 | 0.00 | 0.00 | 72 | 1001.8 |
| 20260510050804 | 44 | 129 | 1.0 | 5.0 | 0.00 | 0.00 | 0.00 | 66 | 1001.3 |
| 20260510040804 | 48 | 26 | 2.0 | 3.0 | 0.00 | 0.00 | 0.00 | 60 | 1001.3 |
| 20260510040305 | 49 | 58 | 3.0 | 8.0 | 0.00 | 0.00 | 0.00 | 60 | 1001.4 |
| 20260510030304 | 50 | 325 | 6.0 | 9.0 | 0.00 | 0.00 | 0.00 | 58 | 1001.4 |
| 20260510020304 | 51 | 292 | 5.0 | 9.0 | 0.00 | 0.00 | 0.00 | 56 | 1001.6 |
| 20260510010804 | 51 | 297 | 4.0 | 7.0 | 0.00 | 0.00 | 0.00 | 54 | 1001.7 |
| 20260510010305 | 52 | 287 | 3.0 | 9.0 | 0.00 | 0.00 | 0.00 | 55 | 1001.7 |
| 20260510000804 | 53 | 359 | 1.0 | 6.0 | 0.00 | 0.00 | 0.00 | 55 | 1001.4 |
| 20260509230804 | 53 | 320 | 2.0 | 6.0 | 0.00 | 0.00 | 0.00 | 53 | 1001.3 |
| 20260509230305 | 53 | 315 | 2.0 | 8.0 | 0.00 | 0.00 | 0.00 | 53 | 1001.3 |
| 20260509220804 | 53 | 145 | 1.0 | 3.0 | 0.00 | 0.00 | 0.00 | 58 | 1001.5 |
| 20260509220305 | 53 | 12 | 2.0 | 9.0 | 0.00 | 0.00 | 0.00 | 58 | 1001.5 |
| 20260509210304 | 54 | 34 | 2.0 | 9.0 | 0.00 | 0.00 | 0.00 | 57 | 1001.3 |
| 20260509200804 | 52 | 356 | 3.0 | 9.0 | 0.00 | 0.00 | 0.00 | 61 | 1001.3 |
| 20260509190805 | 53 | 65 | 2.0 | 9.0 | 0.00 | 0.00 | 0.00 | 63 | 1000.6 |